Zurück zum Katalog

FENGYUN 1C DEB

LostPO
NORAD 31363·DEBRIS·🇨🇳 China

Gestartet May 10, 1999 von Taiyuan Satellite Launch Center

Loading…

Nächste Überflüge (nächste 24 Stunden)

TLE

VeraltetSource: Space-Track

Epoche: Jan 23, 2015, 14:54 UTC

1 31363U 99025BRT 15023.62137956  .00004771  00000-0  29485-2 0  9990
2 31363  98.4761 163.1139 0155482 257.9897 100.4300 13.99940935397312

Verfolge FENGYUN 1C DEB in Echtzeit mit AllMySat

Download on the App Store